EW9826 Weather Reports


time (UTC)temp
C
wind
direction
speed
KPH
gust
KPH
rain 1hr
cm
rain 24hr
cm
rain mn
cm
humidity
%
barometer
mb
20260509234506 11 11 3.2 4.8 0.00 0.00 0.00 80 1017.0
20260509234007 11 11 3.2 8.0 0.00 0.00 0.00 80 1017.1
20260509233507 11 11 3.2 9.7 0.00 0.00 0.00 80 1017.0
20260509233006 11 11 4.8 11.3 0.00 0.00 0.00 80 1016.9
20260509232506 11 12 4.8 11.3 0.00 0.00 0.00 79 1016.9
20260509224506 11 12 4.8 9.7 0.00 0.00 0.00 79 1017.1
20260509224007 11 13 3.2 8.0 0.00 0.00 0.00 79 1017.1
20260509222506 11 11 3.2 11.3 0.00 0.00 0.00 79 1017.2
20260509210007 12 4 1.6 4.8 0.00 0.00 0.00 70 1017.3
20260509205506 12 3 3.2 8.0 0.00 0.00 0.00 71 1017.1
20260509204006 13 3 3.2 4.8 0.00 0.00 0.00 71 1017.0
20260509203506 13 9 3.2 4.8 0.00 0.00 0.00 71 1017.0
20260509203007 13 9 3.2 4.8 0.00 0.00 0.00 70 1016.9
20260509202506 13 9 0.0 4.8 0.00 0.00 0.00 70 1016.9
20260509202006 13 9 1.6 4.8 0.00 0.00 0.00 69 1017.0
20260509201506 13 9 0.0 3.2 0.00 0.00 0.00 68 1017.1
20260509194006 14 9 1.6 4.8 0.00 0.00 0.00 67 1016.9
20260509193506 14 9 3.2 8.0 0.00 0.00 0.00 66 1016.9
20260509193006 15 9 3.2 4.8 0.00 0.00 0.00 66 1016.8
20260509192506 15 9 3.2 8.0 0.00 0.00 0.00 65 1016.8
20260509192006 15 9 3.2 8.0 0.00 0.00 0.00 64 1016.8
20260509191506 15 9 3.2 4.8 0.00 0.00 0.00 63 1016.8
20260509191006 15 9 3.2 9.7 0.00 0.00 0.00 63 1016.8
20260509190006 15 12 6.4 9.7 0.00 0.00 0.00 61 1016.8
20260509185505 15 329 4.8 9.7 0.00 0.00 0.00 61 1016.7
20260509185009 16 0 4.8 11.3 0.00 0.00 0.00 61 1016.7
20260509184507 16 14 6.4 9.7 0.00 0.00 0.00 60 1016.6
20260509184006 16 327 4.8 12.9 0.00 0.00 0.00 59 1016.6
20260509183506 16 1 4.8 11.3 0.00 0.00 0.00 58 1016.6
20260509183006 16 325 6.4 11.3 0.00 0.00 0.00 58 1016.6
20260509182506 16 4 4.8 11.3 0.00 0.00 0.00 57 1016.5
20260509181006 16 337 4.8 16.1 0.00 0.00 0.00 56 1016.3
20260509180006 17 355 4.8 16.1 0.00 0.00 0.00 54 1016.3
20260509174505 17 347 8.0 12.9 0.00 0.00 0.00 52 1016.4
20260509174006 17 355 8.0 19.3 0.00 0.00 0.00 51 1016.5
20260509173506 17 357 9.7 16.1 0.00 0.00 0.00 50 1016.5
20260509173006 17 350 8.0 12.9 0.00 0.00 0.00 49 1016.6
20260509172506 18 357 8.0 12.9 0.00 0.00 0.00 48 1016.6
20260509172006 18 0 3.2 11.3 0.00 0.00 0.00 48 1016.7
20260509171505 18 0 3.2 9.7 0.00 0.00 0.00 46 1016.7
20260509171006 18 355 4.8 11.3 0.00 0.00 0.00 47 1016.6
20260509170006 18 353 3.2 9.7 0.00 0.00 0.00 47 1016.8
20260509164506 18 53 6.4 11.3 0.00 0.00 0.00 48 1016.6
20260509164006 18 346 8.0 12.9 0.00 0.00 0.00 48 1016.7
20260509163506 18 346 6.4 11.3 0.00 0.00 0.00 48 1016.6
20260509160005 17 355 8.0 11.3 0.00 0.00 0.00 46 1016.7
20260509155505 18 359 6.4 14.5 0.00 0.00 0.00 47 1016.6
20260509155007 18 348 9.7 14.5 0.00 0.00 0.00 47 1016.6
20260509145505 18 24 9.7 14.5 0.00 0.00 0.00 47 1016.8
20260509145006 18 345 8.0 14.5 0.00 0.00 0.00 48 1016.8
20260509144504 18 6 11.3 20.9 0.00 0.00 0.00 46 1016.7
20260509142505 18 47 4.8 11.3 0.00 0.00 0.00 46 1016.8
20260509142005 18 45 4.8 19.3 0.00 0.00 0.00 46 1016.8
20260509140006 18 17 4.8 14.5 0.00 0.00 0.00 45 1017.1
20260509135505 18 54 6.4 14.5 0.00 0.00 0.00 46 1017.1
20260509134005 17 3 4.8 14.5 0.00 0.00 0.00 48 1017.3
20260509133505 18 3 4.8 11.3 0.00 0.00 0.00 46 1017.3
20260509133005 18 6 8.0 12.9 0.00 0.00 0.00 47 1017.4
20260509132505 17 4 4.8 12.9 0.00 0.00 0.00 48 1017.4
20260509132005 17 3 4.8 11.3 0.00 0.00 0.00 48 1017.5
20260509131505 17 3 8.0 16.1 0.00 0.00 0.00 48 1017.5
20260509131005 17 342 8.0 16.1 0.00 0.00 0.00 49 1017.6
20260509130005 18 47 4.8 11.3 0.00 0.00 0.00 44 1017.7
20260509125504 18 333 4.8 9.7 0.00 0.00 0.00 44 1017.7
20260509125005 18 90 4.8 12.9 0.00 0.00 0.00 45 1017.8
20260509124505 18 317 8.0 12.9 0.00 0.00 0.00 44 1017.8
20260509124005 18 0 3.2 11.3 0.00 0.00 0.00 45 1017.8
20260509123505 18 149 1.6 8.0 0.00 0.00 0.00 46 1017.8
20260509115005 17 0 4.8 11.3 0.00 0.00 0.00 53 1018.2
20260509114504 17 0 6.4 14.5 0.00 0.00 0.00 53 1018.3
20260509114005 17 340 8.0 14.5 0.00 0.00 0.00 51 1018.3
20260509112504 17 115 1.6 4.8 0.00 0.00 0.00 51 1018.4
20260509112005 17 115 4.8 11.3 0.00 0.00 0.00 51 1018.4
20260509111505 17 12 1.6 8.0 0.00 0.00 0.00 54 1018.5
20260509111006 17 11 3.2 14.5 0.00 0.00 0.00 52 1018.6
20260509103504 17 119 4.8 14.5 0.00 0.00 0.00 55 1018.9
20260509103004 17 71 6.4 14.5 0.00 0.00 0.00 57 1018.9
20260509102504 16 75 3.2 8.0 0.00 0.00 0.00 56 1018.9
20260509102004 16 72 3.2 8.0 0.00 0.00 0.00 57 1018.9
20260509101504 16 76 3.2 12.9 0.00 0.00 0.00 58 1018.9
20260509101005 16 46 1.6 11.3 0.00 0.00 0.00 58 1019.0
20260509100005 16 125 4.8 11.3 0.00 0.00 0.00 58 1019.0
20260509095504 16 71 4.8 12.9 0.00 0.00 0.00 58 1019.0
20260509095005 16 0 6.4 11.3 0.00 0.00 0.00 58 1019.0
20260509094505 16 98 4.8 12.9 0.00 0.00 0.00 58 1019.0
20260509094005 16 106 1.6 11.3 0.00 0.00 0.00 59 1019.1
20260509093504 16 114 4.8 8.0 0.00 0.00 0.00 58 1019.1
20260509093004 16 66 4.8 9.7 0.00 0.00 0.00 59 1019.1
20260509092504 16 15 6.4 20.9 0.00 0.00 0.00 61 1019.1
20260509092004 16 118 4.8 12.9 0.00 0.00 0.00 61 1019.2
20260509082508 15 105 8.0 16.1 0.00 0.00 0.00 67 1019.3
20260509082008 15 110 8.0 14.5 0.00 0.00 0.00 66 1019.2
20260509081508 15 132 4.8 11.3 0.00 0.00 0.00 65 1019.2
20260509081010 15 150 4.8 12.9 0.00 0.00 0.00 67 1019.3
20260509075008 14 104 6.4 20.9 0.00 0.00 0.00 69 1019.3
20260509074509 14 119 8.0 19.3 0.00 0.00 0.00 70 1019.3
20260509074009 14 81 8.0 19.3 0.00 0.00 0.00 71 1019.3
20260509073508 14 103 3.2 16.1 0.00 0.00 0.00 72 1019.2
20260509073009 14 103 1.6 12.9 0.00 0.00 0.00 72 1019.3
20260509072508 13 105 1.6 4.8 0.00 0.00 0.00 73 1019.4
20260509072008 13 105 1.6 4.8 0.00 0.00 0.00 75 1019.4
20260509071508 13 105 1.6 8.0 0.00 0.00 0.00 77 1019.4
20260509071009 12 105 3.2 12.9 0.00 0.00 0.00 77 1019.4
20260509061009 10 103 6.4 12.9 0.00 0.00 0.00 82 1019.4
20260509055512 10 22 1.6 8.0 0.00 0.00 0.00 83 1019.4
20260509055008 10 20 0.0 3.2 0.00 0.00 0.00 85 1019.4
20260509051507 8 20 0.0 3.2 0.00 0.00 0.00 89 1019.2
20260509051008 8 20 0.0 1.6 0.00 0.00 0.00 90 1019.1
20260509050008 8 20 0.0 0.0 0.00 0.00 0.00 89 1019.1
20260509045507 8 20 0.0 0.0 0.00 0.00 0.00 89 1019.0
20260509045007 8 20 0.0 0.0 0.00 0.00 0.00 89 1019.0
20260509042507 7 340 0.0 0.0 0.00 0.00 0.00 89 1018.9
20260509042007 7 340 0.0 0.0 0.00 0.00 0.00 89 1018.9
20260509041507 7 340 0.0 0.0 0.00 0.00 0.00 89 1018.9
20260509041007 7 340 0.0 0.0 0.00 0.00 0.00 88 1018.9
20260509040007 8 340 0.0 0.0 0.00 0.00 0.00 89 1018.8
20260509035507 8 340 0.0 0.0 0.00 0.00 0.00 88 1018.9
20260509035008 8 340 0.0 0.0 0.00 0.00 0.00 88 1018.8
20260509034507 8 340 0.0 0.0 0.00 0.00 0.00 88 1018.8
20260509034008 8 340 0.0 0.0 0.00 0.00 0.00 88 1018.9
20260509033507 8 340 0.0 0.0 0.00 0.00 0.00 88 1018.9
20260509031008 8 340 0.0 0.0 0.00 0.00 0.00 88 1018.9
20260509024008 8 340 0.0 0.0 0.00 0.00 0.00 88 1018.9
20260509023508 8 340 0.0 1.6 0.00 0.00 0.00 88 1018.9
20260509023008 8 340 0.0 0.0 0.00 0.00 0.00 88 1018.9
20260509022507 8 340 0.0 0.0 0.00 0.00 0.00 88 1018.9
20260509022007 8 340 0.0 0.0 0.00 0.00 0.00 88 1018.9
20260509021507 8 340 0.0 0.0 0.00 0.00 0.00 88 1018.9
20260509021008 8 340 0.0 0.0 0.00 0.00 0.00 88 1018.9
20260509020007 8 340 0.0 0.0 0.00 0.00 0.00 88 1018.9
20260509015007 8 340 0.0 0.0 0.00 0.00 0.00 87 1018.9
20260509010007 9 340 0.0 0.0 0.00 0.00 0.00 85 1019.2
20260509004008 10 340 0.0 0.0 0.00 0.00 0.00 84 1019.0
20260509003507 10 340 0.0 0.0 0.00 0.00 0.00 83 1019.1
20260509003007 10 340 0.0 0.0 0.00 0.00 0.00 83 1019.0
20260509002507 10 340 0.0 0.0 0.00 0.00 0.00 83 1018.9
20260509000006 10 340 0.0 0.0 0.00 0.00 0.00 82 1018.9
20260508235507 10 340 0.0 0.0 0.00 0.00 0.00 83 1018.9